FW7063 Weather Reports


time (UTC)temp
C
wind
direction
speed
KPH
gust
KPH
rain 1hr
cm
rain 24hr
cm
rain mn
cm
humidity
%
barometer
mb
20260507074606 10 174 0.0 3.2 0.00 0.00 0.00 80 1015.6
20260507074103 10 159 1.6 4.8 0.00 0.00 0.00 80 1015.6
20260507073603 10 153 0.0 1.6 0.00 0.00 0.00 81 1015.6
20260507073103 10 151 1.6 4.8 0.00 0.00 0.00 81 1015.6
20260507072605 10 55 1.6 1.6 0.00 0.00 0.00 82 1015.6
20260507072103 9 11 0.0 1.6 0.00 0.00 0.00 82 1015.6
20260507071604 9 169 0.0 0.0 0.00 0.00 0.00 82 1015.6
20260507071103 8 180 1.6 1.6 0.00 0.00 0.00 82 1015.6
20260507070604 8 61 1.6 3.2 0.00 0.00 0.00 82 1015.6
20260507065603 8 37 0.0 1.6 0.00 0.00 0.00 81 1015.6
20260507065103 8 37 0.0 0.0 0.00 0.00 0.00 81 1015.6
20260507064603 8 37 0.0 1.6 0.00 0.00 0.00 81 1015.6
20260507064103 8 37 0.0 0.0 0.00 0.00 0.00 81 1015.6
20260507063603 8 37 0.0 0.0 0.00 0.00 0.00 81 1015.6
20260507063103 8 37 1.6 1.6 0.00 0.00 0.00 81 1015.6
20260507062603 8 37 0.0 0.0 0.00 0.00 0.00 82 1015.6
20260507062103 8 37 0.0 0.0 0.00 0.00 0.00 83 1015.6
20260507061603 7 37 0.0 1.6 0.00 0.00 0.00 83 1015.6
20260507061105 7 37 0.0 0.0 0.00 0.00 0.00 84 1015.6
20260507060604 7 37 0.0 0.0 0.00 0.00 0.00 86 1015.2
20260507060104 7 37 0.0 0.0 0.00 0.00 0.00 87 1015.2
20260507055603 6 37 0.0 0.0 0.00 0.00 0.00 86 1015.6
20260507055103 5 37 0.0 0.0 0.00 0.00 0.00 86 1015.6
20260507054603 5 37 0.0 0.0 0.00 0.00 0.00 86 1015.6
20260507054104 5 37 0.0 0.0 0.00 0.00 0.00 86 1015.6
20260507053605 5 37 0.0 0.0 0.00 0.00 0.00 86 1015.6
20260507053104 5 37 0.0 0.0 0.00 0.00 0.00 85 1015.6
20260507052603 5 37 0.0 0.0 0.00 0.00 0.00 85 1014.9
20260507052105 5 37 0.0 0.0 0.00 0.00 0.00 85 1015.6
20260507051603 5 37 0.0 0.0 0.00 0.00 0.00 85 1015.2
20260507051104 5 37 0.0 0.0 0.00 0.00 0.00 85 1015.2
20260507050603 5 37 0.0 0.0 0.00 0.00 0.00 85 1015.2
20260507050104 5 37 0.0 0.0 0.00 0.00 0.00 85 1015.2
20260507045604 5 37 0.0 0.0 0.00 0.00 0.00 85 1015.2
20260507045103 5 37 0.0 0.0 0.00 0.00 0.00 84 1015.2
20260507044603 5 37 0.0 0.0 0.00 0.00 0.00 84 1015.2
20260507044104 5 37 0.0 0.0 0.00 0.00 0.00 84 1014.9
20260507043603 5 37 0.0 0.0 0.00 0.00 0.00 84 1015.2
20260507043103 5 37 0.0 0.0 0.00 0.00 0.00 84 1015.2
20260507042603 5 37 0.0 0.0 0.00 0.00 0.00 84 1014.9
20260507042103 5 37 0.0 0.0 0.00 0.00 0.00 83 1015.2
20260507041603 5 37 0.0 0.0 0.00 0.00 0.00 83 1014.9
20260507041103 6 37 0.0 0.0 0.00 0.00 0.00 83 1015.2
20260507040604 6 37 0.0 0.0 0.00 0.00 0.00 83 1015.2
20260507040104 6 37 0.0 0.0 0.00 0.00 0.00 83 1014.9
20260507035604 6 37 0.0 0.0 0.00 0.00 0.00 83 1014.9
20260507035103 6 37 0.0 0.0 0.00 0.00 0.00 83 1014.9
20260507034603 6 37 0.0 0.0 0.00 0.00 0.00 83 1014.9
20260507034104 6 37 0.0 0.0 0.00 0.00 0.00 82 1014.9
20260507033606 6 37 0.0 0.0 0.00 0.00 0.00 82 1014.9
20260507033103 6 37 0.0 0.0 0.00 0.00 0.00 82 1014.9
20260507032603 6 37 0.0 0.0 0.00 0.00 0.00 82 1014.9
20260507032103 6 37 0.0 0.0 0.00 0.00 0.00 83 1014.6
20260507031605 6 37 0.0 1.6 0.00 0.00 0.00 83 1014.9
20260507031103 6 37 0.0 1.6 0.00 0.00 0.00 82 1014.9
20260507030604 6 37 0.0 1.6 0.00 0.00 0.00 82 1014.6
20260507025604 7 20 0.0 1.6 0.00 0.00 0.00 82 1014.9
20260507025103 7 19 0.0 0.0 0.00 0.00 0.00 81 1014.9
20260507024610 7 19 0.0 0.0 0.00 0.00 0.00 81 1014.9
20260507024105 7 19 0.0 0.0 0.00 0.00 0.00 82 1014.6
20260507023604 7 19 0.0 0.0 0.00 0.00 0.00 82 1014.9
20260507023103 7 29 0.0 1.6 0.00 0.00 0.00 81 1014.6
20260507022603 7 18 0.0 1.6 0.00 0.00 0.00 81 1014.6
20260507022104 7 28 0.0 1.6 0.00 0.00 0.00 81 1014.9
20260507021603 7 21 0.0 3.2 0.00 0.00 0.00 81 1014.6
20260507021104 7 18 1.6 4.8 0.00 0.00 0.00 81 1014.6
20260507020604 7 35 0.0 0.0 0.00 0.00 0.00 80 1014.6
20260507020103 7 36 0.0 0.0 0.00 0.00 0.00 80 1014.6
20260507015604 7 36 0.0 0.0 0.00 0.00 0.00 81 1014.6
20260507015104 7 19 0.0 1.6 0.00 0.00 0.00 81 1014.6
20260507014604 7 42 0.0 1.6 0.00 0.00 0.00 80 1014.6
20260507014105 7 20 0.0 4.8 0.00 0.00 0.00 81 1014.6
20260507013603 7 14 1.6 3.2 0.00 0.00 0.00 79 1014.6
20260507013103 7 3 0.0 1.6 0.00 0.00 0.00 78 1014.6
20260507012603 7 3 0.0 0.0 0.00 0.00 0.00 78 1014.6
20260507012104 7 3 1.6 1.6 0.00 0.00 0.00 78 1014.6
20260507011603 7 17 1.6 1.6 0.00 0.00 0.00 77 1014.6
20260507011103 7 18 0.0 0.0 0.00 0.00 0.00 77 1014.9
20260507010604 7 18 0.0 0.0 0.00 0.00 0.00 77 1014.6
20260507005603 7 17 0.0 1.6 0.00 0.00 0.00 76 1014.6
20260507005103 7 18 0.0 1.6 0.00 0.00 0.00 76 1014.6
20260507004603 7 18 0.0 0.0 0.00 0.00 0.00 75 1014.6
20260507004103 7 18 0.0 0.0 0.00 0.00 0.00 74 1014.6
20260507003603 8 17 0.0 0.0 0.00 0.00 0.00 74 1014.6
20260507003103 8 18 0.0 0.0 0.00 0.00 0.00 74 1014.6
20260507002604 8 18 0.0 0.0 0.00 0.00 0.00 74 1014.6
20260507002103 8 18 0.0 1.6 0.00 0.00 0.00 73 1014.6
20260507001603 8 18 0.0 1.6 0.00 0.00 0.00 73 1014.6
20260507001104 8 18 0.0 0.0 0.00 0.00 0.00 72 1014.6
20260507000603 8 25 0.0 1.6 0.00 0.00 0.00 73 1014.6
20260506235604 8 32 0.0 1.6 0.00 0.00 0.00 72 1014.6
20260506235104 9 16 0.0 1.6 0.00 0.00 0.00 72 1014.2
20260506234604 9 9 0.0 1.6 0.00 0.00 0.00 72 1014.6
20260506234104 9 30 0.0 1.6 0.00 0.00 0.00 72 1014.2
20260506233603 9 30 0.0 1.6 0.00 0.00 0.00 71 1014.2
20260506233104 9 46 1.6 1.6 0.00 0.00 0.00 71 1014.6
20260506232603 10 46 0.0 1.6 0.00 0.00 0.00 72 1014.2
20260506232103 10 26 0.0 1.6 0.00 0.00 0.00 72 1014.2
20260506231604 10 355 1.6 4.8 0.00 0.00 0.00 71 1014.2
20260506231103 10 4 0.0 1.6 0.00 0.00 0.00 71 1014.6
20260506230603 10 4 0.0 1.6 0.00 0.00 0.00 71 1014.2
20260506230103 10 22 0.0 1.6 0.00 0.00 0.00 70 1014.6
20260506225603 10 4 0.0 1.6 0.00 0.00 0.00 70 1014.2
20260506225103 10 4 0.0 1.6 0.00 0.00 0.00 70 1014.2
20260506224603 10 7 0.0 1.6 0.00 0.00 0.00 70 1014.2
20260506224103 10 0 0.0 3.2 0.00 0.00 0.00 70 1014.6
20260506223603 10 353 0.0 3.2 0.00 0.00 0.00 69 1014.6
20260506223104 10 25 1.6 1.6 0.00 0.00 0.00 69 1014.2
20260506222604 10 19 1.6 8.0 0.00 0.00 0.00 69 1014.2
20260506222103 10 27 0.0 4.8 0.00 0.00 0.00 69 1014.2
20260506221603 10 17 0.0 1.6 0.00 0.00 0.00 68 1014.2
20260506221103 10 17 0.0 1.6 0.00 0.00 0.00 68 1014.2
20260506220604 10 38 0.0 0.0 0.00 0.00 0.00 68 1014.2
20260506220104 10 23 0.0 3.2 0.00 0.00 0.00 68 1014.2
20260506215604 10 11 0.0 3.2 0.00 0.00 0.00 68 1013.9
20260506215104 10 17 1.6 3.2 0.00 0.00 0.00 67 1014.2
20260506214603 10 351 0.0 3.2 0.00 0.00 0.00 67 1014.2
20260506214104 10 353 0.0 1.6 0.00 0.00 0.00 67 1014.2
20260506213603 10 8 1.6 1.6 0.00 0.00 0.00 67 1014.2
20260506213110 10 18 1.6 1.6 0.00 0.00 0.00 66 1013.9
20260506212603 10 345 0.0 4.8 0.00 0.00 0.00 66 1014.2
20260506212104 10 343 3.2 4.8 0.00 0.00 0.00 66 1013.9
20260506211604 10 333 0.0 4.8 0.00 0.00 0.00 66 1013.9
20260506211103 10 331 0.0 1.6 0.00 0.00 0.00 66 1013.9
20260506210604 10 345 0.0 1.6 0.00 0.00 0.00 66 1013.9
20260506210104 10 24 0.0 3.2 0.00 0.00 0.00 66 1013.9
20260506205604 10 27 1.6 4.8 0.00 0.00 0.00 66 1013.9
20260506205103 10 120 0.0 1.6 0.00 0.00 0.00 66 1013.9
20260506204603 11 117 1.6 3.2 0.00 0.00 0.00 66 1013.9
20260506204104 11 129 1.6 1.6 0.00 0.00 0.00 66 1013.9
20260506203604 11 115 0.0 3.2 0.00 0.00 0.00 66 1013.9
20260506203103 11 81 1.6 1.6 0.00 0.00 0.00 66 1013.9
20260506202604 11 328 1.6 3.2 0.00 0.00 0.00 65 1013.9
20260506202103 11 339 1.6 4.8 0.00 0.00 0.00 65 1013.9
20260506201604 11 330 0.0 4.8 0.00 0.00 0.00 65 1013.5
20260506201103 11 84 0.0 1.6 0.00 0.00 0.00 65 1013.5
20260506200604 11 81 1.6 4.8 0.00 0.00 0.00 66 1013.5
20260506195605 11 82 1.6 3.2 0.00 0.00 0.00 65 1013.2
20260506195104 11 113 0.0 3.2 0.00 0.00 0.00 65 1013.2
20260506194603 11 110 0.0 1.6 0.00 0.00 0.00 64 1013.2
20260506194104 11 103 0.0 3.2 0.00 0.00 0.00 64 1013.2
20260506193604 11 94 1.6 1.6 0.00 0.00 0.00 64 1013.2
20260506193104 11 77 1.6 1.6 0.00 0.00 0.00 63 1013.2
20260506192607 11 95 1.6 4.8 0.00 0.00 0.00 63 1013.2
20260506192104 11 100 0.0 4.8 0.00 0.00 0.00 62 1012.9
20260506191605 11 104 1.6 3.2 0.00 0.00 0.00 62 1013.2
20260506191103 11 90 1.6 3.2 0.00 0.00 0.00 61 1012.9
20260506190604 11 93 0.0 1.6 0.00 0.00 0.00 60 1012.9
20260506190103 11 96 4.8 8.0 0.00 0.00 0.00 60 1012.9
20260506185605 12 285 3.2 4.8 0.00 0.00 0.00 59 1012.9
20260506185103 12 75 3.2 12.9 0.00 0.00 0.00 59 1012.9
20260506184608 12 74 4.8 12.9 0.00 0.00 0.00 59 1012.9
20260506184104 12 48 1.6 9.7 0.00 0.00 0.00 59 1012.9
20260506183604 12 46 1.6 4.8 0.00 0.00 0.00 59 1012.5
20260506183104 12 49 0.0 8.0 0.00 0.00 0.00 60 1012.5
20260506182603 12 99 1.6 4.8 0.00 0.00 0.00 60 1012.5
20260506182104 12 64 6.4 9.7 0.00 0.00 0.00 59 1012.5
20260506181605 12 17 1.6 3.2 0.00 0.00 0.00 59 1012.5
20260506181105 12 97 0.0 4.8 0.00 0.00 0.00 59 1012.5
20260506180606 12 340 1.6 8.0 0.00 0.00 0.00 59 1012.2
20260506180103 12 110 1.6 3.2 0.00 0.00 0.00 59 1012.2
20260506175604 12 356 3.2 8.0 0.00 0.00 0.00 58 1012.5
20260506175104 12 122 4.8 8.0 0.00 0.00 0.00 59 1012.2
20260506174603 12 311 3.2 3.2 0.00 0.00 0.00 60 1012.2
20260506174104 12 308 3.2 3.2 0.00 0.00 0.00 59 1011.9
20260506173604 12 312 4.8 11.3 0.00 0.00 0.00 60 1012.2
20260506173104 12 302 4.8 8.0 0.00 0.00 0.00 60 1012.2
20260506172603 12 350 0.0 4.8 0.00 0.00 0.00 58 1012.2
20260506172106 12 332 4.8 11.3 0.00 0.00 0.00 60 1012.2
20260506171603 12 287 0.0 3.2 0.00 0.00 0.00 59 1012.2
20260506171103 12 99 0.0 4.8 0.00 0.00 0.00 59 1012.2
20260506170603 12 44 6.4 8.0 0.00 0.00 0.00 59 1011.9
20260506170103 12 101 1.6 9.7 0.00 0.00 0.00 59 1011.9
20260506165603 12 341 4.8 8.0 0.00 0.00 0.00 59 1012.2
20260506165103 12 105 4.8 8.0 0.00 0.00 0.00 60 1012.2
20260506164604 12 308 1.6 11.3 0.00 0.00 0.00 60 1012.2
20260506164103 12 120 4.8 11.3 0.00 0.00 0.00 59 1012.2
20260506163605 12 111 4.8 8.0 0.00 0.00 0.00 60 1012.2
20260506163104 12 286 1.6 8.0 0.00 0.00 0.00 61 1012.2
20260506162603 12 288 4.8 11.3 0.00 0.00 0.00 60 1012.2
20260506162103 12 56 4.8 12.9 0.00 0.00 0.00 61 1012.2
20260506161604 12 353 4.8 9.7 0.00 0.00 0.00 60 1012.2
20260506161103 12 28 4.8 8.0 0.00 0.00 0.00 60 1012.5
20260506160604 12 41 1.6 8.0 0.00 0.00 0.00 60 1012.5
20260506160104 12 5 6.4 11.3 0.00 0.00 0.00 61 1012.5
20260506155604 12 39 3.2 9.7 0.00 0.00 0.00 61 1012.2
20260506155109 12 319 8.0 12.9 0.00 0.00 0.00 61 1012.2
20260506154604 12 355 4.8 12.9 0.00 0.00 0.00 61 1012.2
20260506154104 12 342 1.6 4.8 0.00 0.00 0.00 61 1012.2
20260506153603 12 105 4.8 8.0 0.00 0.00 0.00 60 1012.2
20260506153104 12 57 6.4 11.3 0.00 0.00 0.00 60 1012.5
20260506152603 12 79 4.8 16.1 0.00 0.00 0.00 60 1012.5
20260506152103 12 31 4.8 9.7 0.00 0.00 0.00 60 1012.2
20260506151605 12 115 4.8 9.7 0.00 0.00 0.00 61 1012.2
20260506151103 12 102 3.2 9.7 0.00 0.00 0.00 60 1012.2
20260506150604 12 81 4.8 14.5 0.00 0.00 0.00 59 1012.2
20260506150104 12 358 4.8 11.3 0.00 0.00 0.00 58 1012.2
20260506145604 12 64 3.2 12.9 0.00 0.00 0.00 59 1012.2
20260506145105 12 152 4.8 16.1 0.00 0.00 0.00 58 1012.2
20260506144603 12 7 4.8 8.0 0.00 0.00 0.00 59 1012.2
20260506144103 13 89 4.8 8.0 0.00 0.00 0.00 58 1011.9
20260506143605 13 350 4.8 12.9 0.00 0.00 0.00 58 1012.2
20260506143103 13 149 3.2 9.7 0.00 0.00 0.00 57 1012.2
20260506142210 13 104 1.6 9.7 0.00 0.00 0.00 56 1011.9
20260506141622 13 115 6.4 12.9 0.00 0.00 0.00 57 1011.9
20260506141104 13 38 1.6 11.3 0.00 0.00 0.00 58 1011.9
20260506140605 13 66 11.3 16.1 0.00 0.00 0.00 57 1011.9
20260506140106 13 72 1.6 9.7 0.00 0.00 0.00 56 1011.9
20260506135603 14 129 11.3 16.1 0.00 0.00 0.00 55 1012.2
20260506135104 14 76 9.7 14.5 0.00 0.00 0.00 55 1011.9
20260506134604 15 32 3.2 11.3 0.00 0.00 0.00 52 1011.9
20260506134104 15 103 3.2 11.3 0.00 0.00 0.00 52 1012.2
20260506133604 14 316 4.8 12.9 0.00 0.00 0.00 53 1012.2
20260506133103 15 302 8.0 16.1 0.00 0.00 0.00 51 1011.9
20260506132604 15 329 8.0 14.5 0.00 0.00 0.00 53 1011.9
20260506132104 14 316 8.0 11.3 0.00 0.00 0.00 55 1011.9
20260506131604 13 338 14.5 14.5 0.00 0.00 0.00 54 1011.9
20260506131103 13 324 12.9 14.5 0.00 0.00 0.00 55 1012.2
20260506130603 13 130 8.0 11.3 0.00 0.00 0.00 53 1011.9
20260506130103 14 101 8.0 14.5 0.00 0.00 0.00 53 1012.2
20260506125603 14 19 4.8 16.1 0.00 0.00 0.00 56 1011.9
20260506125104 13 85 3.2 8.0 0.00 0.00 0.00 55 1011.9
20260506124604 13 108 6.4 12.9 0.00 0.00 0.00 54 1012.2
20260506124103 13 3 8.0 17.7 0.00 0.00 0.00 54 1012.2
20260506123603 13 328 8.0 16.1 0.00 0.00 0.00 54 1011.9
20260506123104 13 215 3.2 8.0 0.00 0.00 0.00 55 1012.2
20260506122603 13 49 3.2 11.3 0.00 0.00 0.00 54 1011.9
20260506122103 13 226 3.2 9.7 0.00 0.00 0.00 54 1011.9
20260506121604 13 326 11.3 17.7 0.00 0.00 0.00 51 1011.9
20260506121103 13 45 8.0 14.5 0.00 0.00 0.00 53 1012.2
20260506120604 13 93 3.2 9.7 0.00 0.00 0.00 53 1012.2
20260506120103 13 125 6.4 11.3 0.00 0.00 0.00 53 1012.2
20260506115603 13 318 4.8 14.5 0.00 0.00 0.00 54 1012.2
20260506115104 13 8 4.8 12.9 0.00 0.00 0.00 54 1012.2
20260506114603 13 359 4.8 20.9 0.00 0.00 0.00 54 1012.2
20260506114104 13 250 8.0 16.1 0.00 0.00 0.00 56 1012.2
20260506113604 13 329 6.4 8.0 0.00 0.00 0.00 55 1012.2
20260506113103 12 2 11.3 20.9 0.00 0.00 0.00 55 1012.2
20260506112604 12 154 1.6 9.7 0.00 0.00 0.00 55 1012.5
20260506112104 12 73 6.4 11.3 0.00 0.00 0.00 55 1012.2
20260506111604 12 40 8.0 12.9 0.00 0.00 0.00 54 1012.5
20260506111103 13 344 6.4 11.3 0.00 0.00 0.00 55 1012.5
20260506110603 12 357 6.4 14.5 0.00 0.00 0.00 54 1012.5
20260506110104 12 14 12.9 17.7 0.00 0.00 0.00 56 1012.2
20260506105603 12 57 8.0 16.1 0.00 0.00 0.00 57 1012.2
20260506105104 12 94 6.4 14.5 0.00 0.00 0.00 56 1012.5
20260506104604 12 324 4.8 24.1 0.00 0.00 0.00 57 1012.5
20260506104103 12 110 9.7 14.5 0.00 0.00 0.00 57 1012.2
20260506103603 12 69 8.0 11.3 0.00 0.00 0.00 56 1012.5
20260506103106 12 345 11.3 14.5 0.00 0.00 0.00 56 1012.2
20260506102605 12 220 4.8 14.5 0.00 0.00 0.00 56 1012.5
20260506102105 12 335 9.7 29.0 0.00 0.00 0.00 55 1012.2
20260506101604 12 79 6.4 11.3 0.00 0.00 0.00 58 1012.5
20260506101105 12 47 6.4 11.3 0.00 0.00 0.00 56 1012.2
20260506100603 12 175 3.2 29.0 0.00 0.00 0.00 57 1012.2
20260506100104 12 14 3.2 16.1 0.00 0.00 0.00 56 1012.2
20260506095603 12 322 6.4 14.5 0.00 0.00 0.00 58 1011.9
20260506095104 12 80 4.8 11.3 0.00 0.00 0.00 58 1012.2
20260506094604 12 353 11.3 16.1 0.00 0.00 0.00 62 1012.2
20260506094103 11 113 8.0 12.9 0.00 0.00 0.00 63 1012.2
20260506093604 11 94 4.8 9.7 0.00 0.00 0.00 65 1012.2
20260506093104 11 285 8.0 14.5 0.00 0.00 0.00 65 1012.5
20260506092605 11 1 3.2 11.3 0.00 0.00 0.00 64 1012.2
20260506092103 11 343 11.3 14.5 0.00 0.00 0.00 67 1012.5
20260506091603 11 262 3.2 17.7 0.00 0.00 0.00 66 1012.5
20260506091105 11 326 11.3 22.5 0.00 0.00 0.00 66 1012.2
20260506090604 11 309 11.3 20.9 0.00 0.00 0.00 66 1012.5
20260506090103 11 327 9.7 20.9 0.00 0.00 0.00 65 1012.2
20260506085603 11 293 1.6 8.0 0.00 0.00 0.00 65 1012.5
20260506085103 11 138 4.8 20.9 0.00 0.00 0.00 63 1012.2
20260506084603 11 326 3.2 22.5 0.00 0.00 0.00 68 1012.2
20260506084103 11 7 14.5 24.1 0.00 0.00 0.00 67 1012.2
20260506083603 11 106 4.8 9.7 0.00 0.00 0.00 67 1012.2
20260506083103 10 336 3.2 14.5 0.00 0.00 0.00 67 1012.2
20260506082605 10 144 1.6 16.1 0.00 0.00 0.00 65 1012.2
20260506082104 10 317 8.0 17.7 0.00 0.00 0.00 67 1012.2
20260506081603 10 21 8.0 12.9 0.00 0.00 0.00 69 1012.2
20260506081103 10 308 9.7 16.1 0.00 0.00 0.00 69 1012.5
20260506080603 10 325 8.0 17.7 0.00 0.00 0.00 69 1012.5